Temperature
6 6 5 5 5 5 5 5 5 5 5 5 5 5 5 4 4 4 4 4 4 4 4 4 4 4 4 4 4 4 4 3 3 3 4 4 4 3 3 3 3 4 4
5 5 5 5 5 5 5 5 5 5 5 5 5 4 4 4 4 4 4 4 4 4 4 4 4 4 4 4 3 3 3 3 3 3 3 3 3 3 3 3 3 3 3
5 5 5 5 5 5 4 4 4 4 4 4 4 4 4 4 4 4 4 4 4 4 4 3 3 3 3 3 3 3 3 3 2 2 2 2 2 2 2 2 2 2 3
5 5 5 5 5 4 4 4 4 4 4 4 4 4 4 4 4 3 3 3 3 3 3 3 3 3 3 3 2 2 2 2 2 2 2 2 2 2 2 2 2 2 2
5 5 5 5 4 4 4 4 4 4 3 3 3 3 3 3 3 3 3 3 3 3 3 3 3 2 2 2 2 2 1 1 1 1 1 1 1 1 1 1 1 1 1
5 5 4 4 4 4 4 4 3 3 3 3 3 3 3 3 3 3 3 3 2 2 2 2 2 2 2 2 2 1 1 1 1 1 1 0 1 1 1 1 0 0 0
4 4 4 4 4 3 3 3 3 3 3 3 2 2 2 2 2 2 2 2 2 2 2 2 2 2 1 1 1 1 1 0 0 0 0 0 0 0 0 0 0 0 0
4 4 4 4 3 3 3 3 3 2 2 2 2 2 2 2 2 2 2 2 2 2 1 1 1 1 1 1 1 0 0 0 0 -0 -0 -0 -0 -0 -0 -0 -0 -1 -1
4 3 3 3 3 3 3 2 2 2 2 2 2 2 2 2 2 2 1 1 1 1 1 1 1 0 0 0 0 -0 -0 -0 -0 -0 -0 -0 -0 -1 -1 -1 -1 -1 -1
3 3 3 3 2 2 2 2 2 2 2 2 2 1 1 1 1 1 1 1 0 0 0 0 0 0 0 -0 -0 -0 -1 -0 -1 -1 -1 -1 -1 -1 -1 -1 -1 -2 -2
3 3 2 2 2 2 2 1 1 1 1 1 1 1 1 1 1 1 0 0 -0 -0 -0 -0 -0 -0 -0 -1 -1 -1 -1 -1 -1 -1 -1 -1 -1 -1 -1 -2 -2 -2 -2
2 2 2 2 1 1 1 1 1 1 1 1 1 0 0 0 0 0 -0 -0 -1 -1 -1 -1 -1 -1 -1 -1 -1 -1 -1 -2 -2 -2 -2 -2 -2 -2 -2 -2 -2 -2 -3
2 2 1 1 1 1 1 1 0 0 0 0 -0 -0 -0 -0 -0 -1 -1 -1 -1 -1 -1 -1 -1 -1 -1 -2 -2 -2 -2 -2 -2 -2 -2 -2 -2 -2 -3 -3 -3 -3 -3
1 1 1 1 0 0 0 0 -0 -0 -0 -0 -1 -1 -1 -1 -1 -1 -1 -1 -2 -2 -2 -2 -2 -2 -2 -2 -2 -2 -3 -3 -3 -3 -3 -3 -3 -3 -3 -3 -3 -3 -3
1 1 0 -0 -0 -0 -0 -0 -1 -1 -1 -1 -1 -1 -1 -1 -2 -2 -2 -2 -2 -2 -2 -2 -3 -3 -3 -3 -3 -3 -3 -3 -3 -3 -3 -3 -3 -3 -4 -4 -4 -4 -4
0 -0 -0 -0 -1 -1 -1 -1 -1 -1 -1 -1 -1 -1 -2 -2 -2 -2 -2 -3 -3 -3 -3 -3 -3 -3 -3 -3 -3 -4 -4 -4 -4 -4 -4 -4 -4 -4 -4 -4 -4 -5 -5
-1 -1 -1 -1 -1 -1 -1 -1 -2 -1 -2 -2 -2 -2 -2 -2 -2 -3 -3 -3 -3 -3 -3 -3 -4 -4 -4 -4 -4 -4 -4 -4 -4 -4 -5 -5 -5 -5 -5 -5 -5 -5 -5
-1 -1 -2 -2 -2 -2 -2 -2 -2 -2 -2 -2 -2 -2 -2 -3 -3 -3 -3 -3 -3 -4 -4 -4 -4 -4 -4 -4 -5 -5 -5 -5 -5 -5 -5 -5 -5 -5 -5 -5 -5 -5 -5
-2 -2 -2 -2 -3 -3 -3 -3 -3 -3 -3 -3 -3 -3 -3 -3 -3 -4 -4 -4 -4 -4 -4 -4 -5 -5 -5 -5 -5 -5 -5 -5 -5 -5 -5 -6 -6 -6 -6 -6 -6 -6 -6
-2 -3 -3 -3 -3 -3 -3 -3 -3 -3 -3 -4 -4 -4 -4 -4 -4 -4 -4 -4 -5 -5 -5 -5 -5 -5 -5 -5 -5 -5 -5 -5 -6 -6 -6 -6 -6 -6 -6 -6 -6 -6 -6
-3 -3 -3 -4 -4 -4 -4 -4 -4 -4 -4 -4 -4 -4 -5 -5 -5 -5 -5 -5 -5 -5 -5 -5 -5 -5 -6 -6 -6 -6 -6 -6 -6 -6 -6 -6 -7 -7 -7 -7 -7 -7 -7
-4 -4 -4 -4 -4 -5 -5 -5 -5 -5 -5 -5 -5 -5 -5 -5 -5 -5 -5 -6 -6 -6 -6 -6 -6 -6 -6 -6 -6 -6 -6 -6 -6 -7 -7 -7 -7 -7 -7 -7 -7 -7 -7
-4 -4 -5 -5 -5 -5 -5 -5 -5 -5 -5 -5 -5 -5 -6 -6 -6 -6 -6 -6 -6 -6 -6 -6 -6 -6 -7 -7 -7 -7 -7 -7 -7 -7 -7 -7 -7 -7 -8 -8 -8 -7 -7
-5 -5 -5 -5 -5 -6 -6 -6 -6 -6 -6 -6 -6 -6 -6 -6 -6 -6 -6 -6 -6 -6 -6 -7 -7 -7 -7 -7 -7 -7 -7 -7 -7 -7 -7 -7 -7 -8 -8 -8 -8 -8 -8
-6 -6 -6 -6 -6 -6 -6 -6 -6 -6 -6 -7 -7 -7 -7 -7 -7 -7 -7 -7 -7 -7 -7 -7 -7 -7 -7 -7 -7 -7 -7 -8 -8 -8 -8 -8 -8 -8 -8 -8 -8 -8 -8
-6 -6 -6 -6 -7 -7 -7 -7 -7 -7 -7 -7 -7 -7 -7 -7 -7 -7 -7 -7 -7 -7 -7 -7 -7 -7 -7 -7 -8 -8 -8 -8 -8 -8 -8 -8 -8 -8 -8 -8 -8 -9 -9
Wind_Speed
4 4 4 4 4 4 4 4 4 3 4 4 4 4 4 4 5 5 5 5 6 5 5 5 6 5 4 4 4 4 5 5 7 6 4 4 6 6 6 8 8 8 9
4 4 4 4 4 4 4 4 4 4 4 4 4 4 4 4 5 6 6 6 6 6 6 6 6 5 5 5 4 5 5 6 6 7 6 5 6 7 7 7 7 8 9
3 3 4 4 4 4 4 3 4 4 4 4 4 4 4 4 5 5 6 6 6 6 6 7 7 6 7 5 5 5 5 5 5 6 6 5 5 5 6 6 8 8 9
3 4 4 4 4 4 3 3 3 3 3 4 4 4 4 4 5 5 5 5 6 6 6 7 7 8 8 7 6 6 5 6 6 6 6 5 5 5 5 6 6 6 7
3 4 4 4 4 3 3 3 3 3 3 4 4 4 4 4 4 5 5 5 6 6 6 7 7 8 8 8 6 7 7 6 6 6 6 6 6 5 5 5 7 6 7
4 4 3 3 3 3 4 4 4 3 3 3 4 4 5 4 5 6 5 5 6 6 7 7 7 7 8 9 10 11 10 9 8 7 7 8 8 7 6 6 6 6 6
3 3 4 4 4 4 4 3 4 4 4 4 4 4 5 5 6 7 7 6 6 6 7 7 6 6 8 8 9 10 11 12 12 10 10 10 9 8 7 7 7 7 8
3 3 3 3 4 3 3 4 3 3 3 3 4 4 4 4 6 6 6 6 6 7 7 8 8 8 7 8 8 8 9 10 10 10 10 10 9 8 8 8 8 7 6
3 3 3 3 3 4 4 4 3 3 3 3 3 4 4 4 5 6 6 5 5 7 7 7 8 8 8 9 8 8 9 8 9 11 12 11 10 10 8 5 5 5 6
3 3 3 3 3 4 4 3 3 3 3 3 3 3 4 4 4 5 6 4 5 5 5 6 8 8 8 9 8 8 9 8 6 7 8 8 8 8 9 8 6 6 5
2 2 2 2 3 3 3 3 3 3 3 3 3 3 3 4 4 5 5 4 5 5 5 5 5 7 9 10 9 8 9 7 6 7 6 6 5 5 6 6 6 5 6
2 2 1 1 1 2 2 2 2 2 2 2 2 2 2 3 3 4 5 5 5 5 5 5 5 7 9 9 8 8 8 7 5 5 5 5 4 4 4 4 5 6 6
2 1 1 1 1 1 2 2 1 2 2 2 2 2 2 2 3 4 4 5 5 5 5 6 7 7 7 6 6 7 6 4 4 4 5 5 4 4 3 2 3 3 3
2 1 1 1 1 0 0 1 1 2 2 2 2 2 2 3 2 2 3 3 4 4 4 4 5 5 4 4 4 4 4 4 4 4 4 3 3 2 3 2 2 2 2
1 1 0 0 0 0 1 1 2 2 3 3 3 3 3 3 3 4 4 3 3 3 4 3 3 3 3 3 3 3 3 3 3 3 3 3 3 3 3 2 2 2 3
1 1 1 1 0 1 1 1 2 2 3 4 4 5 4 5 5 5 5 5 5 4 3 3 3 3 3 3 3 3 3 3 3 3 3 3 3 3 3 2 2 3 3
2 1 1 1 1 1 1 1 2 2 2 3 4 4 4 5 5 4 4 4 4 3 3 3 3 3 3 3 3 3 4 4 3 3 3 3 3 3 3 3 3 3 3
1 1 1 1 1 1 1 2 2 2 3 3 3 3 4 4 4 4 3 3 2 2 2 3 3 3 3 3 3 3 4 3 3 3 3 3 3 3 3 3 3 3 3
1 1 1 1 1 1 1 2 2 2 3 3 3 3 3 3 3 3 3 2 3 2 2 3 3 3 3 3 4 3 3 3 3 3 3 3 3 3 3 3 3 4 3
1 1 1 1 1 1 1 2 2 2 2 3 3 3 3 3 2 2 2 2 3 3 3 3 3 4 4 3 3 3 3 3 3 3 3 3 3 3 3 4 3 3 3
0 1 1 1 1 2 2 2 2 2 3 3 3 4 4 3 3 3 3 3 3 3 3 3 3 3 3 3 3 3 4 3 3 3 3 3 3 3 3 3 3 3 3
0 1 1 1 1 2 2 2 2 3 3 3 3 3 4 3 3 3 3 3 3 3 3 3 3 3 3 3 3 4 4 4 4 3 3 3 3 3 3 3 3 3 3
1 1 1 1 1 2 2 2 3 3 3 3 3 3 3 2 2 2 3 3 3 3 2 3 3 3 3 3 4 4 4 4 4 4 4 4 3 3 3 3 3 3 3
1 1 1 1 2 2 2 3 3 3 3 3 3 3 3 3 3 3 3 3 3 3 3 3 3 4 5 5 5 5 5 5 5 5 5 4 4 3 3 3 3 3 3
1 1 1 2 2 2 2 3 3 2 2 3 3 2 3 3 3 3 2 2 3 3 4 4 4 4 5 6 6 6 6 7 7 6 5 4 4 3 3 3 3 3 3
1 1 2 2 2 2 2 3 3 3 3 3 2 2 3 3 3 2 2 2 3 3 4 4 4 5 6 6 6 6 7 7 7 6 5 3 3 3 3 3 3 3 3
Wind_Direction
219 211 205 205 206 204 205 205 201 200 200 199 194 194 194 197 198 200 203 206 212 215 219 224 230 234 233 232 232 234 241 248 256 267 267 263 256 257 257 259 259 257 258
221 217 207 201 198 200 206 207 198 197 200 200 194 193 195 200 204 204 205 208 215 220 222 226 232 234 235 237 236 238 241 247 255 265 268 265 265 261 260 262 261 260 259
213 208 201 197 197 202 207 204 195 193 195 196 195 199 204 206 212 215 214 213 218 226 227 228 231 232 235 237 239 243 245 249 253 258 266 270 273 265 267 266 263 262 263
209 203 204 202 199 201 202 198 193 190 191 195 199 204 209 213 213 216 220 221 226 232 234 235 234 234 237 237 240 243 245 247 247 252 262 268 270 271 265 265 268 266 268
210 208 212 206 198 197 192 193 192 194 199 201 204 209 212 216 215 218 223 228 232 237 241 242 241 241 245 243 243 241 240 243 245 251 258 264 263 265 262 264 268 274 274
211 213 213 205 201 200 192 191 192 199 205 208 211 215 218 220 220 228 232 234 237 240 246 250 252 247 246 247 248 245 242 242 243 250 257 257 260 261 261 261 267 275 277
210 212 206 200 195 199 192 189 197 201 205 214 218 222 227 227 224 231 237 240 239 243 247 250 252 250 248 247 249 248 246 248 247 249 253 256 260 257 256 257 257 263 270
202 207 206 201 200 200 198 199 207 211 212 217 223 230 236 237 230 233 239 241 244 246 247 247 248 249 246 249 251 250 251 250 249 248 253 257 259 258 251 254 261 268 280
206 214 215 210 203 202 207 214 212 212 217 222 226 234 242 248 237 237 241 243 245 251 254 253 252 253 253 253 252 253 256 256 252 250 256 259 259 254 247 251 254 259 271
219 225 220 214 209 212 213 214 215 213 218 221 233 238 245 252 251 245 247 244 249 257 260 259 256 259 262 257 254 252 254 257 257 257 255 255 255 246 234 236 241 249 266
209 208 214 216 218 220 217 211 208 207 211 223 240 250 250 251 247 247 257 252 252 261 265 268 267 270 270 262 259 254 256 263 258 255 253 253 255 250 242 242 245 246 251
172 177 195 212 210 210 207 213 209 201 212 230 249 268 268 262 256 252 264 270 271 265 267 270 273 276 277 269 261 260 262 263 258 251 248 250 255 254 253 251 254 257 263
157 168 182 188 191 200 204 207 219 220 225 241 246 260 278 281 272 270 270 274 280 277 273 277 281 279 279 268 263 263 259 253 247 249 249 254 258 256 259 262 264 273 292
165 171 172 178 167 164 199 216 228 236 240 247 253 260 270 275 276 278 279 281 282 283 284 285 284 281 278 279 277 269 262 256 252 254 259 267 267 255 250 248 255 258 279
167 178 204 240 234 264 291 280 261 264 262 254 258 261 265 270 279 291 287 283 284 280 288 285 287 289 286 282 276 271 270 267 265 267 262 266 265 259 259 257 255 254 259
174 197 228 253 286 292 291 321 327 283 294 291 283 277 280 279 284 286 293 298 296 287 285 273 276 281 282 284 283 280 276 270 268 272 266 258 255 253 255 255 250 249 253
189 203 223 241 251 259 266 272 302 322 303 291 289 289 286 289 289 286 289 297 292 283 272 269 277 280 282 283 282 282 281 280 275 265 264 261 258 255 247 242 241 248 256
183 197 216 232 248 253 261 268 273 285 301 308 308 302 298 292 288 283 287 297 283 278 279 281 285 287 287 286 284 286 290 287 276 270 267 262 255 255 250 242 235 240 251
182 207 229 244 261 264 266 270 271 274 281 292 303 308 311 301 291 284 282 278 276 279 282 287 288 289 291 289 289 290 290 288 287 280 270 262 255 252 253 251 246 242 249
204 212 256 246 252 259 260 260 266 271 277 282 288 296 305 303 295 294 287 282 276 278 280 280 284 287 289 288 289 289 288 287 287 280 275 270 262 258 258 258 251 245 250
203 210 249 263 256 257 261 264 268 271 275 282 287 292 294 287 283 285 285 282 278 278 281 283 283 284 284 286 285 283 283 283 283 281 280 277 268 264 265 264 260 255 253
248 246 255 269 273 270 274 272 270 270 273 281 290 291 290 288 283 283 286 290 291 290 287 282 279 279 277 276 275 276 276 279 281 282 280 275 264 260 263 263 261 261 253
298 288 295 292 288 280 283 278 275 273 276 280 284 283 280 281 283 287 290 294 296 294 288 281 279 279 279 277 273 266 266 269 273 274 273 270 268 265 264 263 259 262 258
319 302 293 291 289 283 284 285 282 278 278 282 283 278 276 278 282 287 293 296 297 297 294 288 280 278 280 281 278 273 268 268 270 265 260 257 262 266 264 259 259 259 258
319 298 288 284 283 285 289 289 286 284 283 282 280 279 281 285 288 293 295 295 296 294 294 291 282 279 277 277 277 275 273 272 270 266 260 257 256 259 259 257 256 257 252
326 311 304 297 291 291 291 289 290 292 288 286 284 283 282 283 285 288 289 288 293 295 292 288 283 284 284 282 278 277 277 276 273 270 266 260 253 254 255 256 256 252 244
Height
1474 1474 1475 1475 1475 1476 1476 1476 1477 1478 1478 1479 1480 1482 1483 1484 1485 1487 1488 1489 1491 1492 1493 1494 1495 1496 1496 1496 1496 1497 1497 1497 1496 1494 1495 1495 1495 1495 1494 1494 1493 1493 1492
1471 1472 1472 1472 1473 1473 1474 1474 1474 1475 1476 1477 1478 1479 1480 1481 1482 1484 1485 1486 1487 1488 1489 1490 1491 1492 1492 1492 1492 1492 1492 1492 1492 1490 1490 1490 1490 1490 1489 1488 1488 1488 1487
1469 1469 1469 1470 1470 1470 1471 1471 1472 1472 1473 1474 1476 1476 1477 1478 1479 1480 1481 1482 1483 1484 1485 1486 1487 1487 1487 1487 1487 1487 1487 1487 1487 1486 1485 1485 1484 1484 1484 1483 1482 1482 1481
1466 1466 1467 1467 1468 1468 1468 1469 1469 1470 1471 1472 1473 1474 1475 1475 1476 1477 1478 1478 1479 1480 1481 1482 1482 1482 1482 1482 1482 1482 1483 1482 1482 1481 1480 1479 1479 1479 1478 1477 1476 1476 1475
1463 1464 1464 1465 1465 1466 1466 1467 1467 1468 1468 1469 1470 1471 1471 1472 1472 1473 1474 1475 1475 1476 1477 1477 1477 1477 1477 1477 1477 1477 1477 1477 1476 1476 1475 1474 1474 1473 1473 1472 1471 1470 1469
1461 1461 1462 1462 1463 1463 1464 1464 1465 1465 1465 1466 1466 1467 1467 1468 1469 1470 1470 1471 1471 1471 1472 1472 1472 1472 1472 1472 1472 1472 1472 1472 1471 1471 1470 1469 1468 1469 1468 1467 1466 1465 1463
1458 1458 1459 1459 1460 1460 1461 1461 1462 1462 1463 1463 1463 1464 1464 1465 1466 1466 1466 1467 1467 1467 1467 1467 1467 1466 1466 1466 1466 1466 1465 1465 1466 1466 1464 1463 1463 1463 1463 1461 1460 1459 1458
1455 1455 1456 1457 1457 1458 1458 1458 1459 1459 1460 1460 1460 1460 1461 1461 1462 1462 1462 1462 1462 1462 1463 1462 1462 1461 1461 1461 1460 1459 1459 1459 1459 1459 1458 1458 1458 1458 1457 1456 1455 1454 1452
1452 1453 1453 1454 1454 1455 1455 1455 1456 1456 1457 1457 1457 1457 1458 1458 1458 1458 1458 1457 1457 1457 1457 1457 1456 1456 1456 1455 1455 1454 1453 1453 1453 1452 1452 1452 1452 1451 1451 1450 1449 1448 1446
1449 1450 1451 1451 1451 1452 1452 1453 1453 1454 1454 1454 1454 1454 1454 1454 1454 1454 1454 1453 1452 1452 1452 1452 1451 1451 1450 1450 1449 1448 1447 1447 1447 1446 1446 1445 1445 1445 1444 1444 1443 1442 1440
1447 1447 1448 1448 1448 1449 1449 1450 1450 1450 1451 1451 1451 1451 1451 1451 1450 1450 1449 1449 1448 1447 1447 1446 1446 1446 1445 1445 1444 1443 1442 1442 1441 1441 1440 1439 1439 1439 1438 1438 1438 1437 1436
1444 1445 1445 1445 1445 1446 1446 1447 1447 1447 1447 1447 1447 1447 1447 1447 1446 1446 1445 1445 1444 1443 1443 1442 1441 1441 1440 1439 1438 1438 1437 1437 1436 1435 1435 1434 1433 1433 1432 1432 1432 1431 1431
1442 1442 1442 1443 1443 1443 1444 1444 1444 1444 1444 1444 1444 1444 1443 1443 1443 1442 1442 1441 1440 1439 1438 1438 1437 1436 1435 1434 1433 1433 1432 1431 1430 1430 1429 1429 1428 1428 1427 1427 1426 1425 1425
1440 1440 1440 1440 1440 1441 1441 1441 1441 1441 1441 1441 1441 1440 1440 1439 1439 1438 1438 1437 1436 1435 1434 1433 1433 1431 1430 1429 1429 1428 1427 1426 1426 1425 1424 1424 1423 1423 1422 1421 1421 1420 1420
1437 1437 1438 1438 1438 1438 1438 1439 1439 1439 1439 1439 1438 1438 1437 1436 1435 1435 1434 1433 1433 1432 1431 1430 1428 1427 1426 1425 1424 1424 1423 1422 1421 1420 1420 1419 1418 1418 1417 1417 1417 1416 1416
1434 1434 1435 1435 1435 1435 1435 1436 1436 1436 1436 1436 1436 1435 1434 1433 1432 1432 1431 1430 1429 1429 1428 1426 1425 1424 1423 1422 1421 1420 1419 1418 1417 1416 1415 1414 1414 1414 1413 1413 1413 1413 1412
1432 1432 1432 1432 1432 1433 1433 1433 1432 1433 1433 1433 1432 1432 1431 1430 1429 1428 1427 1427 1426 1425 1424 1423 1422 1421 1420 1419 1418 1417 1415 1414 1413 1412 1411 1411 1410 1410 1410 1409 1409 1409 1409
1429 1429 1429 1429 1429 1430 1430 1430 1430 1429 1429 1428 1429 1428 1427 1426 1426 1425 1424 1423 1422 1422 1421 1420 1419 1418 1417 1416 1414 1413 1412 1411 1410 1409 1408 1407 1407 1406 1406 1406 1405 1405 1405
1426 1426 1426 1426 1426 1427 1427 1427 1426 1426 1426 1425 1425 1424 1424 1423 1422 1422 1421 1420 1419 1418 1418 1417 1416 1415 1414 1413 1412 1410 1409 1408 1407 1406 1405 1404 1404 1403 1403 1403 1402 1402 1402
1423 1423 1424 1423 1423 1423 1423 1423 1423 1423 1422 1422 1421 1421 1420 1419 1419 1418 1418 1417 1416 1415 1414 1414 1413 1412 1411 1409 1408 1407 1406 1405 1404 1403 1402 1402 1401 1400 1400 1400 1399 1399 1399
1420 1420 1421 1420 1420 1420 1420 1420 1419 1419 1419 1418 1418 1417 1417 1416 1415 1415 1414 1413 1413 1412 1411 1410 1409 1408 1407 1406 1405 1404 1403 1402 1401 1401 1400 1399 1398 1398 1397 1397 1397 1396 1396
1418 1418 1418 1417 1417 1417 1417 1417 1416 1416 1415 1415 1414 1414 1413 1413 1412 1412 1411 1410 1409 1409 1408 1407 1406 1405 1404 1403 1402 1401 1400 1399 1398 1398 1397 1396 1395 1395 1394 1394 1394 1393 1393
1415 1415 1415 1415 1414 1414 1414 1413 1413 1413 1412 1412 1411 1411 1410 1410 1409 1408 1408 1407 1406 1405 1405 1404 1402 1401 1401 1400 1399 1398 1397 1396 1396 1395 1394 1393 1393 1392 1392 1391 1391 1390 1390
1413 1412 1412 1412 1411 1411 1411 1410 1410 1410 1409 1408 1408 1407 1407 1406 1406 1405 1404 1404 1403 1402 1401 1400 1399 1398 1397 1396 1396 1395 1394 1393 1393 1392 1391 1391 1390 1390 1389 1389 1388 1387 1387
1410 1410 1409 1409 1409 1408 1408 1407 1407 1406 1406 1405 1405 1404 1404 1403 1402 1402 1401 1401 1400 1399 1398 1397 1396 1395 1394 1393 1392 1392 1391 1390 1390 1389 1388 1388 1387 1387 1387 1386 1385 1385 1385
1408 1407 1407 1406 1406 1405 1405 1404 1404 1403 1403 1402 1402 1401 1401 1400 1400 1399 1398 1398 1397 1396 1396 1395 1393 1392 1391 1390 1389 1389 1388 1387 1387 1386 1386 1385 1385 1384 1384 1383 1383 1383 1382